THORAD DELTA 1 DEB, 9696

Orbit data source: Space-Track

THORAD DELTA 1 DEB, 9696 is space debris in SSO originally from a launch on Fri, 15 Nov 1974 UTC launched from the Air Force Western Test Range (AFWTR). Debris objects in space refer to the collection of defunct objects orbiting the Earth. Examples of debris include non-operational satellites, rocket bodies, and fragments generated from explosions, collisions, or faulty payload assembly.

Loading next visibility...
Identifier
9696, 1974-089DV
Orbit
SSO
Country
Flag of USUS
Related business
Manufacturer
Unknown
Mission
Spacecraft
Bus & Motor
Unknown
Mass
Unknown
Launch date (UTC)
1974-11-15 (51 years ago)
Launch vehicle
Unknown
Launch site
Air Force Western Test Range (AFWTR)
Object type
Payload
Rocket body
Debris
Shape & HBR
Unknown shape, 0.1 m
Radar Cross Section
Small (<0.1 m²)

Expand to show TLE details & history
Last TLE update: 2 days ago

TLE from 2 days ago
0 THORAD DELTA 1 DEB
1 09696U 74089DV  25287.06370853  .00000237  00000-0  24030-2 0  9997
2 09696 100.8132 132.5615 0192048  45.8301 106.3491 12.22547230268957
Epoch: 2025-10-14T01:31Z
TLE epoch observation values (Epoch: 2025-10-14T01:31:44.416Z)
Latitude
25.26295°
Longitude
-88.08473°
Altitude
1,629.949 km
Speed
7.038 km/s
True Right ascension
21h 10m 49s
True Declination
25° 08' 42"
Sunlit
Object was in daylight at epoch
Visualization orbit readout
Latitude
Unknown
Longitude
Unknown
Altitude
Unknown
Speed
Unknown
Apparent Right ascension
Unknown
Apparent Declination
Unknown
Sunlit
N/A
Visualization observer readout
Local Sidereal Time
13:01:49
Azimuth
Unknown
Elevation
Unknown
Doppler factor
Unknown
Orbital elements
Apogee altitude
1,731.811 km
Perigee altitude
1,426.181 km
Semi-major axis
7,957.133 km
Eccentricity
0.0192
Inclination
100.8132°
RAAN
132.5615°
Arg. of periapsis
45.8301°
True anomaly
108.44618°
Mean anomaly
106.3491°
Eccentric anomaly
107.39911°
Mean motion
3.05779 °/min
Orbital period
117.73 mins
BSTAR
0.002403
Loading maneuver chart data...
Computing Atmospheric mass density...

Documentation

Showing up to 5 results
|